Regional Weather Roundup
Issued by NWS

Home | Current Version | Previous Version | Graphics & Text | Print | Product List | Glossary On
Versions: 1 2 3 4 5 6 7 8 9 10 11 12 13 14 15 16 17 18 19 20 21 22 23 24 25 26 27 28 29 30 31 32 33 34 35 36 37 38 39 40 41 42 43 44 45 46 47 48 49 50
000
ASUS43 KMKX 101000
RWRWI

WISCONSIN REGIONAL WEATHER ROUNDUP
NATIONAL WEATHER SERVICE MILWAUKEE/SULLIVAN WI
400 AM CST SAT DEC 10 2016

NOTE: "FAIR" INDICATES FEW OR NO CLOUDS BELOW 12,000 FEET WITH NO
SIGNIFICANT WEATHER AND/OR OBSTRUCTIONS TO VISIBILITY.

WIZ001-002-006>008-014>016-023>028-101100-
NORTHWEST WISCONSIN

CITY           SKY/WX    TMP DP  RH WIND       PRES   REMARKS
SUPERIOR ARPT  CLOUDY     8  -2  64 NW8       30.49S WCI  -4
ASHLAND        CLOUDY     6   2  83 W6        30.46S WCI  -4
HAYWARD        CLOUDY     8  -2  63 CALM      30.43S
SIREN          CLOUDY    10   2  69 NW5       30.46S WCI   2
CUMBERLAND     LGT SNOW  10   5  79 W9        30.42S WCI  -2
RICE LAKE      CLOUDY    11   5  77 CALM      30.45S
CHETEK         CLOUDY    11   1  63 CALM      30.45S
LADYSMITH      CLOUDY    11   3  71 NW6       30.44R WCI   1
EAU CLAIRE     NOT AVBL
MENOMONIE      CLOUDY    12   4  70 SW8       30.48R WCI   0
NEW RICHMOND   PTCLDY     6   1  76 W5        30.47S WCI  -2
OSCEOLA        CLOUDY     8   3  80 W7        30.52R WCI  -4
$$

WIZ003>005-009-010-017-018-101100-
NORTH CENTRAL WISCONSIN

CITY           SKY/WX    TMP DP  RH WIND       PRES   REMARKS
MANITOWISH WTR CLOUDY     5   0  80 W5        30.36R WCI  -4
ARBOR VITAE    CLOUDY     9   1  69 NW7       30.35S WCI  -2
WOODRUFF       CLOUDY     9   1  69 NW7       30.35S WCI  -2
RHINELANDER    CLOUDY     9   2  73 NW8       30.36R WCI  -3
EAGLE RIVER    CLOUDY     7  -3  64 W8        30.34S WCI  -6
LAND O LAKES   CLOUDY     7   0  72 W7        30.36R WCI  -4
PHILLIPS       CLOUDY     7   2  78 CALM      30.38S
TOMAHAWK       FLURRIES   9   4  80 NW3       30.38R
MEDFORD        CLOUDY    10   2  69 W5        30.38S WCI   2
MERRILL        LGT SNOW  11   7  83 N3        30.39S
$$

WIZ029-030-035-036-043>047-101100-
CENTRAL WISCONSIN

CITY           SKY/WX    TMP DP  RH WIND       PRES   REMARKS
WAUSAU         CLOUDY    12   2  64 W12       30.39S WCI  -2
MOSINEE        CLOUDY    12   7  79 NW9G16    30.41R WCI   0
MARSHFIELD     CLOUDY    12   4  70 NW9       30.40S WCI   0
STEVENS POINT  LGT SNOW  13   8  80 W3        30.42S
WAUPACA        CLOUDY    17  11  75 SW6       30.44S WCI   9
WAUTOMA        FLURRIES  14   9  80 W8        30.45F WCI   3
WISC RAPIDS    PTCLDY    12   8  84 W6        30.44S WCI   3
CAMP DOUGLAS   NOT AVBL
$$

WIZ011>013-019>022-031-037>040-048>050-101100-
NORTHEAST WISCONSIN

CITY           SKY/WX    TMP DP  RH WIND       PRES   REMARKS
ANTIGO         CLOUDY    11   5  76 W9        30.36R WCI  -1
SHAWANO        FLURRIES  19  11  72 W5        30.42S WCI  12
OCONTO         CLOUDY    18   8  64 W12       30.41S WCI   5
STURGEON BAY   FLURRIES  19   7  59 W10       30.40S WCI   7
GREEN BAY      CLOUDY    20  10  65 W9        30.42F WCI   9
MANITOWOC      CLOUDY    19   9  63 W13       30.43F WCI   7
APPLETON       CLOUDY    18  10  73 W7        30.41S WCI   8
CLINTONVILLE   CLOUDY    18   9  68 W10       30.42S WCI   6
OSHKOSH        PTCLDY    15   8  73 W5        30.44S WCI   8
$$

WIZ032>034-041-042-053>061-101100-
SOUTHWEST WISCONSIN

CITY           SKY/WX    TMP DP  RH WIND       PRES   REMARKS
LA CROSSE      MOCLDY    12   4  70 W12       30.52R WCI  -2
SPARTA         PTCLDY    11   7  81 SW3       30.48S
VIROQUA        CLOUDY    12  10  90 W7        30.44S WCI   1
BOSCOBEL       CLOUDY    18  11  74 CALM      30.51F
PRAIRIE DU CHI CLOUDY    17  12  80 W5        30.51F WCI  10
PLATTEVILLE    CLOUDY    16  15  94 W7        30.48F WCI   7
$$

WIZ056-057-062-063-064-067-068-101100-
SOUTH CENTRAL WISCONSIN

CITY           SKY/WX    TMP DP  RH WIND       PRES   REMARKS
REEDSBURG      CLEAR     13   9  84 W6        30.47S WCI   4
BARABOO/DELLS  MOCLDY    13   9  83 W3        30.45F
LONE ROCK      NOT AVBL
MINERAL POINT  FLURRIES  18  16  93 W6        30.45F WCI   9
MADISON        FLURRIES  16  11  80 W6        30.47S WCI   7
MIDDLETON      PTCLDY    18  14  84 W7        30.47S WCI   9
WATERTOWN      CLOUDY    17  12  80 W7        30.46S WCI   8
MONROE         PTCLDY    18  14  86 W9        30.46S WCI   6
JANESVILLE     FLURRIES  19  14  79 W5        30.48F WCI  13
$$

WIZ051-052-058>065-066-070>072-101100-
SOUTHEAST WISCONSIN

CITY           SKY/WX    TMP DP  RH WIND       PRES   REMARKS
MILWAUKEE      MOCLDY    20  12  71 W9        30.47R WCI   9
WAUKESHA       CLOUDY    18  12  79 W7        30.46S WCI   8
MILWAUKEE/TIMM MOCLDY    19  12  73 W9        30.47S WCI   9
RACINE         CLOUDY    19  12  74 W8        30.49R WCI   9
BURLINGTON     CLOUDY    23  18  83 W7        30.47S WCI  14
KENOSHA        CLOUDY    19  14  81 W10       30.47S WCI   7
FOND DU LAC    MOCLDY    15   6  67 W3        30.45S
SHEBOYGAN      PTCLDY    15   9  76 W8        30.44S WCI   4
WEST BEND      PTCLDY    18  12  79 W9        30.44S WCI   6
JUNEAU         FLURRIES  15  11  85 SW3       30.46S
$$

LSZ147-162-101100-
LAKE SUPERIOR

STATION/POSITION TIME  TEMP    WIND        PRES    WAVE
                       AIR SEA DIR/SP/G            HT/PER
                 (UTC) (F)     (DEG/KT/KT) (MB)    (FT/S)
DEVILS ISLAND    0900   10     290/  8/ 13 1032.6F
PORT WING        0930   11     310/ 16/ 23 1031.8R
SAXON HARBOR     0940    9     230/  6/ 12 1031.2R
$$

LMZ867-665-643>646-101100-
LAKE MICHIGAN

STATION/POSITION TIME  TEMP    WIND        PRES    WAVE
                       AIR SEA DIR/SP/G            HT/PER
                 (UTC) (F)     (DEG/KT/KT) (MB)    (FT/S)
CHAMBERS ISLAND  0940   19     290/  9/ 17 1028.8R
NORTHPORT PIER   0940   19     280/  9/ 18 1028.8S
SISTER BAY       0920   21     320/ 17/ 20   N/A
ALGOMA LAKESHORE 0921          280/ 10/ 14   N/A
KEWAUNEE LAKESHO 0930   19     290/  8/ 16 1029.4F
SHEBOYGAN LAKESH 0900   18     270/  9/ 12 1032.0S
PORT WASHINGTON  0940   18     280/  5/ 11 1032.5S
KENOSHA   LAKESH 0900   20     270/  9/ 14 1031.8
$$

TC  - TEMPERATURE IN CELSIUS
VSB - VISIBILITY IN STATUTE MILES
WCI - WIND CHILL INDEX
HX  - HEAT INDEX




USA.gov is the U.S. government's official web portal to all federal, state and local government web resources and services.